Location: Madrid
(40.4000°N, 3.6830°W)
Time: 00:23:46
(UTC+02:00)

ISS - Pass Details

Date: 19 July 2019
Orbit: 409 x 418 km, 51.6° (Epoch: 22 July)

Event Time Altitude Azimuth Distance (km) Brightness Sun altitude
Rises 05:27:48 0° 303° (WNW) 2,343 -0.1 -14.9°
Reaches altitude 10° 05:29:55 10° 299° (WNW) 1,477 -1.2 -14.6°
Maximum altitude 05:33:09 53° 221° (SW) 509 -3.8 -14.2°
Drops below altitude 10° 05:36:22 10° 143° (SE) 1,466 -1.1 -13.7°
Sets 05:38:28 0° 139° (SE) 2,322 0.0 -13.4°
